Location: Cella
(44.7333°N, 10.5667°E)
Time: 16:03:59
(UTC+00:00)

Cosmos 44 Rocket - Pass Details

Date: 03 March 2021
Orbit: 636 x 754 km, 65.1° (Epoch: 19 April)

Event Time Altitude Azimuth Distance (km) Brightness Sun altitude
Rises 18:21:03 0° 322° (NW) 3,211 7.4 -13.7°
Reaches altitude 10° 18:23:28 10° 319° (NW) 2,285 6.6 -14.1°
Maximum altitude 18:28:38 61° 240° (WSW) 852 4.0 -15.1°
Drops below altitude 10° 18:33:44 10° 161° (SSE) 2,250 5.7 -16.0°
Enters shadow 18:35:30 - 159° (SSE) 2,922 6.2 -16.3°
